Hourly Data Report for September 15, 2017

All times are specified in Local Standard Time (LST). Add 1 hour to adjust for Daylight Saving Time where and when it is observed.

COMOX A
BRITISH COLUMBIA

49°43'00.000" N
124°54'00.000" W
25.60 m
1021830
71893
YQQ

Download Data

Hourly Data (September 2017)
Hourly Data Report for September 15, 2017
Temp Definition
°C
Dew Point Temp Definition
°C
Rel Hum Definition
%
Wind Dir Definition
10's deg

Wind Spd Definition
km/h
Visibility Definition
km
Stn Press Definition
kPa
Hmdx Definition


Wind Chill Definition


Weather Definition


TIME
00:00 14.2 2.9 46 32 9 32.2 101.42     Clear
01:00 14.0 2.5 46 31 7 32.2 101.45     Clear
02:00 11.5 2.4 54 28 6 32.2 101.49     Clear
03:00 10.0 2.4 59 27 4 32.2 101.52     Clear
04:00 10.1 2.9 61 29 7 32.2 101.54     Clear
05:00 10.2 3.5 63 31 9 32.2 101.57     Clear
06:00 9.9 3.5 64 30 7 32.2 101.60     Clear
07:00 11.7 3.9 59 28 6 32.2 101.64     Mainly Clear
08:00 14.3 4.7 52 33 9 32.2 101.65     Mainly Clear
09:00 15.9 5.9 51 35 15 32.2 101.65     Mostly Cloudy
10:00 16.9 6.3 50 35 13 32.2 101.63     Mostly Cloudy
11:00 17.6 7.1 50 2 11 32.2 101.59     Mostly Cloudy
12:00 18.2 7.2 49 2 9 32.2 101.56     Mostly Cloudy
13:00 19.1 7.0 45 4 9 32.2 101.52     Mostly Cloudy
14:00 17.9 8.6 54 7 6 32.2 101.47     Mostly Cloudy
15:00 18.9 8.9 52 6 6 32.2 101.40     Mostly Cloudy
16:00 20.2 4.8 36 8 6 32.2 101.38     Mostly Cloudy
17:00 19.5 4.3 37 7 6 32.2 101.34     Mostly Cloudy
18:00 17.4 5.8 46   0 32.2 101.33     Mostly Cloudy
19:00 16.9 4.9 45   0 32.2 101.28     Mostly Cloudy
20:00 15.3 5.1 51   0 32.2 101.29     Cloudy
21:00 14.4 5.2 54   0 32.2 101.29     Mostly Cloudy
22:00 14.4 5.8 56 33 7 32.2 101.30     Mostly Cloudy
23:00 13.8 6.9 63 32 9 32.2 101.31     Cloudy

Notes on Data Quality.

Legend

  • E = Estimated
  • M = Missing
  • NA = Not Available
  • ‡ = Partner data that is not subject to review by the National Climate Archives
Date modified: